148P/Anderson-LINEAR (2001)

Japanese version
Home page
Total 6,336 html files since Dec. 4, 1995
Updated on May 27, 2001

---------------------------------------------------------------------

* Profile

Designation 148P/2000 SO253
Rediscovery Date September 24, 2000
Magnitude 19.8 mag
Rediscoverer Lincoln Laboratory Near-Earth Asteroid Research project

* Orbital Elements

   The following improved orbital elements by Kenji Muraoka, are
  from 67 observations 1963 to 2001, perturbations by 9 Plantes,
  Moon and 5 minor planets were taken into account.
   The mean residual is +/- 0.91 arc seconds.

      Epoch  =  2001 May  11.0  TT       JDT = 2452040.5
          T  =  2001 May   1.95566       +/- 0.00124 (m.e.) TT
       Peri. =    6.71949                +/- 0.00059
       Node  =   89.80246                +/- 0.00069   (2000.0)
       Incl. =    3.68233                +/- 0.00008
          q  =    1.6936181              +/- 0.0000145 AU
          e  =    0.5394845              +/- 0.0000036
          a  =    3.6776571              +/- 0.0000115 AU
          n  =    0.13974852             +/- 0.00000066
          P  =    7.053                  +/- 0.0000332  years

* Finding Charts

* Magnitudes Graph

        m1 = 14.0 + 5 log d + 10.0 log r

---------------------------------------------------------------------

The orbital elements are calculated by Kenji Muraoka.
The charts are made with StellaNavigator Ver.2.0 for Windows (AstroArts / ASCII).
The magnitudes graphs are made with Comet for Windows.

---------------------------------------------------------------------

Copyright(C) 1995-2008 Seiichi Yoshida (comet@aerith.net). All rights reserved.